Visibility
15.0 15.0 15.0 15.0 15.0 15.0 15.0 15.0 15.0 15.0 15.0 15.0 15.0 15.0 15.0 15.0 15.0 15.0 9.4 12.3 0.0 0.0 15.0 15.0 15.0 14.1 15.0 11.6 0.2 0.0 0.1 6.6 2.9 6.2 15.0 15.0 15.0 15.0 15.0 15.0 15.0 15.0 15.0 15.0 10.2 15.0 15.0 15.0 15.0 15.0 15.0 15.0 15.0 15.0
15.0 15.0 15.0 15.0 15.0 15.0 13.6 13.7 14.9 15.0 15.0 15.0 15.0 15.0 15.0 15.0 14.4 15.0 0.0 14.1 13.0 0.0 2.9 15.0 14.9 15.0 15.0 15.0 0.4 4.7 0.0 0.0 0.0 0.1 15.0 15.0 15.0 15.0 15.0 15.0 15.0 15.0 15.0 15.0 15.0 15.0 15.0 15.0 15.0 15.0 15.0 15.0 15.0 15.0
15.0 15.0 15.0 15.0 15.0 15.0 14.5 11.6 14.7 15.0 15.0 15.0 15.0 15.0 15.0 15.0 9.4 12.2 0.1 0.1 0.0 0.0 15.0 15.0 15.0 15.0 15.0 15.0 15.0 8.3 0.1 0.0 0.2 0.1 0.0 3.6 9.1 15.0 15.0 15.0 14.7 13.0 15.0 15.0 15.0 15.0 15.0 15.0 15.0 15.0 15.0 15.0 15.0 15.0
15.0 15.0 15.0 15.0 15.0 11.0 9.2 8.0 11.0 13.3 15.0 15.0 15.0 15.0 15.0 15.0 14.1 14.8 7.1 5.2 0.8 0.0 0.4 13.2 15.0 15.0 15.0 15.0 15.0 15.0 12.2 15.0 15.0 8.4 4.9 0.1 10.2 7.0 13.8 15.0 15.0 14.3 15.0 15.0 15.0 15.0 15.0 15.0 15.0 15.0 15.0 15.0 15.0 15.0
15.0 15.0 15.0 15.0 15.0 14.9 15.0 15.0 15.0 14.8 8.2 14.2 14.3 15.0 15.0 15.0 15.0 15.0 9.4 13.9 14.8 0.0 0.1 1.2 15.0 15.0 15.0 15.0 15.0 15.0 15.0 15.0 11.8 8.3 1.8 0.2 14.8 0.1 10.5 15.0 15.0 15.0 15.0 15.0 15.0 15.0 15.0 15.0 15.0 15.0 15.0 15.0 15.0 15.0
15.0 15.0 15.0 15.0 15.0 15.0 15.0 15.0 15.0 15.0 15.0 6.5 7.2 9.8 15.0 15.0 15.0 9.2 2.8 14.9 10.9 8.7 2.7 3.5 10.8 15.0 15.0 15.0 15.0 15.0 15.0 15.0 15.0 15.0 5.8 9.8 15.0 15.0 1.4 5.5 15.0 15.0 15.0 15.0 15.0 15.0 15.0 15.0 15.0 15.0 15.0 15.0 15.0 15.0
15.0 15.0 15.0 15.0 15.0 15.0 15.0 13.2 6.8 14.6 15.0 10.6 15.0 13.2 14.1 13.8 15.0 0.1 4.0 1.5 7.7 7.8 1.1 3.1 15.0 15.0 15.0 15.0 15.0 15.0 15.0 15.0 15.0 12.0 15.0 15.0 15.0 10.7 12.9 15.0 15.0 15.0 15.0 15.0 15.0 15.0 15.0 15.0 15.0 15.0 15.0 15.0 15.0 15.0
15.0 15.0 15.0 12.3 1.0 2.0 13.9 12.6 7.7 14.8 11.4 14.5 13.6 13.2 10.2 9.5 15.0 13.8 14.7 15.0 15.0 0.0 8.6 4.7 15.0 9.4 15.0 15.0 13.9 15.0 15.0 15.0 15.0 15.0 15.0 15.0 15.0 15.0 15.0 15.0 15.0 15.0 15.0 15.0 15.0 15.0 15.0 15.0 15.0 15.0 15.0 15.0 15.0 15.0
15.0 15.0 15.0 12.6 8.0 9.6 15.0 12.6 9.0 6.9 15.0 14.9 11.7 11.4 4.4 7.7 1.4 15.0 12.6 10.7 14.8 2.0 0.1 1.9 14.6 1.4 4.1 13.3 11.2 7.5 11.7 14.0 15.0 15.0 15.0 15.0 15.0 12.9 15.0 15.0 15.0 15.0 15.0 15.0 15.0 15.0 15.0 15.0 15.0 15.0 15.0 15.0 15.0 15.0
15.0 15.0 15.0 15.0 15.0 15.0 15.0 15.0 14.8 15.0 9.1 11.6 0.8 0.0 0.0 6.6 15.0 15.0 0.3 0.1 0.1 0.6 1.1 15.0 11.9 1.2 7.9 2.2 10.8 6.8 14.1 15.0 15.0 15.0 14.7 15.0 15.0 15.0 15.0 15.0 15.0 15.0 15.0 15.0 15.0 14.9 15.0 15.0 15.0 15.0 15.0 15.0 15.0 15.0
14.7 14.7 14.7 15.0 9.5 14.6 15.0 11.6 13.7 12.1 3.3 0.0 0.0 0.1 7.6 15.0 14.2 6.5 2.3 1.9 3.4 1.3 15.0 15.0 15.0 15.0 5.3 0.4 1.5 6.7 10.1 10.1 12.5 15.0 11.7 15.0 15.0 15.0 15.0 15.0 15.0 15.0 15.0 15.0 15.0 15.0 15.0 15.0 15.0 15.0 15.0 15.0 15.0 15.0
13.3 14.8 15.0 15.0 13.4 14.9 11.6 14.2 5.1 5.7 0.0 6.4 4.1 4.5 4.6 6.5 9.9 15.0 9.2 12.4 12.8 11.3 15.0 15.0 15.0 15.0 6.0 11.8 3.9 2.4 9.4 15.0 15.0 15.0 13.4 13.8 15.0 15.0 15.0 15.0 15.0 15.0 15.0 15.0 15.0 15.0 15.0 15.0 15.0 15.0 15.0 15.0 15.0 15.0
15.0 15.0 15.0 14.2 14.9 9.3 14.6 14.9 6.1 4.9 2.8 0.1 0.0 0.0 4.1 1.1 0.3 8.4 15.0 15.0 15.0 15.0 15.0 15.0 8.9 15.0 15.0 12.7 7.2 13.8 13.7 15.0 15.0 15.0 15.0 15.0 15.0 15.0 15.0 15.0 15.0 15.0 15.0 15.0 15.0 15.0 15.0 15.0 15.0 15.0 15.0 15.0 15.0 15.0
15.0 15.0 15.0 10.9 13.6 15.0 13.3 10.8 5.2 14.5 0.0 0.0 0.3 0.2 14.3 0.7 15.0 15.0 15.0 15.0 15.0 15.0 15.0 4.0 0.7 2.4 15.0 14.5 14.4 14.7 15.0 15.0 15.0 15.0 15.0 15.0 15.0 15.0 15.0 5.9 15.0 15.0 15.0 15.0 15.0 15.0 15.0 15.0 15.0 15.0 15.0 13.4 0.0 0.0
15.0 15.0 15.0 6.6 8.7 15.0 8.4 8.4 14.7 4.8 0.0 0.1 0.8 0.6 15.0 15.0 15.0 15.0 15.0 15.0 15.0 15.0 5.0 9.2 15.0 15.0 11.4 9.0 15.0 14.2 12.8 15.0 15.0 15.0 15.0 10.3 15.0 15.0 15.0 15.0 15.0 15.0 15.0 15.0 15.0 15.0 15.0 15.0 15.0 15.0 7.0 4.6 12.3 0.0
15.0 7.4 0.2 14.1 10.4 9.7 10.8 11.8 15.0 9.0 10.0 2.5 15.0 15.0 15.0 15.0 15.0 14.3 15.0 11.3 11.7 1.2 10.7 8.5 14.2 6.0 11.0 9.5 15.0 14.9 15.0 15.0 15.0 15.0 15.0 15.0 15.0 15.0 15.0 15.0 15.0 15.0 15.0 15.0 15.0 15.0 15.0 15.0 15.0 15.0 15.0 15.0 0.0 0.0
2.3 0.0 0.1 5.4 14.5 5.0 4.1 0.2 0.0 0.1 14.6 2.7 2.0 11.6 4.7 9.6 14.9 12.6 15.0 15.0 15.0 14.1 8.1 10.3 2.5 4.5 5.7 13.6 15.0 15.0 15.0 15.0 15.0 15.0 15.0 15.0 15.0 15.0 15.0 15.0 15.0 15.0 15.0 15.0 15.0 15.0 15.0 15.0 15.0 15.0 15.0 15.0 0.3 0.3
2.7 14.3 15.0 7.1 14.6 9.8 6.3 3.1 5.9 15.0 15.0 15.0 14.4 15.0 15.0 13.9 14.1 15.0 15.0 15.0 13.4 1.8 14.6 15.0 15.0 12.7 13.4 15.0 15.0 15.0 15.0 15.0 15.0 15.0 15.0 15.0 15.0 15.0 15.0 15.0 15.0 15.0 15.0 15.0 15.0 15.0 15.0 15.0 15.0 15.0 15.0 15.0 15.0 15.0
15.0 15.0 15.0 15.0 11.6 6.3 0.6 8.0 11.8 13.7 15.0 14.8 15.0 15.0 15.0 15.0 15.0 15.0 15.0 15.0 15.0 15.0 8.2 14.2 1.5 15.0 15.0 12.4 9.0 14.6 15.0 15.0 12.8 15.0 15.0 15.0 15.0 15.0 15.0 15.0 15.0 15.0 14.9 15.0 14.9 15.0 15.0 15.0 15.0 15.0 15.0 15.0 15.0 15.0
15.0 15.0 15.0 15.0 15.0 8.2 15.0 15.0 15.0 13.6 13.8 15.0 15.0 12.8 15.0 15.0 15.0 14.3 14.4 13.4 11.9 3.5 1.5 7.8 14.5 15.0 15.0 15.0 15.0 15.0 15.0 13.5 15.0 15.0 2.2 14.5 15.0 15.0 15.0 15.0 15.0 15.0 15.0 15.0 15.0 15.0 15.0 15.0 15.0 15.0 15.0 15.0 15.0 15.0
12.8 11.6 15.0 15.0 14.9 15.0 15.0 15.0 15.0 12.1 10.7 12.4 15.0 14.9 15.0 15.0 13.9 12.6 11.0 9.8 9.9 11.2 15.0 15.0 15.0 15.0 15.0 15.0 15.0 15.0 15.0 10.3 15.0 14.8 14.9 15.0 15.0 15.0 15.0 15.0 15.0 13.8 0.5 0.5 0.1 0.1 15.0 15.0 15.0 10.6 5.2 0.3 14.9 15.0
13.1 15.0 15.0 15.0 15.0 15.0 15.0 15.0 14.3 10.6 15.0 15.0 15.0 15.0 14.9 12.6 13.8 8.5 11.8 8.2 8.8 14.2 14.4 13.0 14.9 14.1 15.0 15.0 15.0 15.0 15.0 15.0 8.2 15.0 15.0 15.0 8.6 3.6 5.9 3.6 0.0 0.0 0.0 0.1 8.0 15.0 12.7 7.6 9.2 13.9 0.1 0.1 15.0 15.0
15.0 15.0 8.5 7.2 6.5 15.0 14.7 12.8 1.5 5.3 0.5 2.2 7.1 1.9 4.6 5.6 15.0 15.0 1.7 9.3 15.0 15.0 15.0 15.0 15.0 15.0 15.0 13.7 12.4 15.0 15.0 15.0 15.0 15.0 15.0 15.0 8.0 0.0 0.0 0.0 0.0 0.0 0.2 15.0 15.0 15.0 15.0 15.0 15.0 8.4 0.7 0.7 0.1 0.1
15.0 15.0 11.9 6.6 5.1 2.5 4.3 0.6 3.6 5.4 1.1 0.6 1.1 0.2 0.1 0.1 8.9 11.3 14.0 15.0 14.5 13.9 15.0 15.0 15.0 15.0 15.0 15.0 15.0 15.0 15.0 15.0 15.0 13.6 0.0 0.0 0.0 0.1 0.0 0.1 15.0 15.0 15.0 15.0 15.0 15.0 15.0 15.0 15.0 0.5 0.1 0.0 0.0 0.1
2.7 0.5 4.8 14.3 12.9 3.6 7.9 3.5 5.4 5.0 14.4 10.3 15.0 2.0 0.3 15.0 0.4 0.2 1.1 1.2 14.4 14.1 15.0 15.0 15.0 14.1 15.0 15.0 3.1 0.1 0.0 0.0 0.0 0.1 0.1 0.0 0.0 0.1 0.1 0.5 0.8 0.6 3.1 14.4 1.4 0.6 0.3 0.1 0.2 0.5 0.5 0.6 0.7 0.5
1.8 11.7 4.8 4.4 2.1 9.1 4.7 5.8 10.7 10.4 9.4 8.4 6.8 15.0 14.8 1.4 1.9 0.2 0.7 4.7 1.2 2.9 1.7 0.1 0.1 0.0 0.0 0.0 0.1 0.1 0.2 0.0 0.1 1.5 0.2 0.1 0.1 0.3 0.2 0.2 0.8 0.2 5.7 1.8 1.9 0.4 0.2 0.2 0.2 0.4 0.2 0.2 0.7 1.1
5.2 11.5 12.5 15.0 12.8 13.9 12.3 15.0 15.0 15.0 11.0 8.8 6.8 8.9 3.9 3.6 1.1 2.1 11.5 8.6 5.6 8.4 7.9 0.2 6.7 9.0 2.8 5.8 15.0 14.8 15.0 15.0 4.1 0.4 5.5 14.9 10.7 11.6 1.9 0.3 0.2 0.1 0.2 9.0 0.5 0.4 0.2 0.2 0.3 0.3 0.1 0.1 0.1 0.1
11.4 13.7 12.5 15.0 15.0 15.0 3.4 2.4 8.5 13.6 14.7 15.0 15.0 14.8 11.5 4.8 0.3 3.4 1.9 11.0 8.9 14.6 9.5 15.0 15.0 15.0 9.3 3.1 1.7 0.7 0.4 1.3 14.2 15.0 12.0 8.4 7.3 15.0 14.4 10.6 3.2 13.6 3.3 0.8 0.8 0.8 0.3 0.4 0.8 1.4 0.8 0.1 0.1 0.1
5.9 13.1 14.9 2.2 12.9 13.8 15.0 15.0 9.8 15.0 15.0 15.0 14.5 11.5 13.2 13.3 12.4 3.1 2.8 15.0 15.0 6.2 1.2 6.0 0.8 0.4 0.3 0.3 0.1 0.6 3.1 0.2 0.7 8.3 11.6 1.4 4.4 0.3 2.6 7.8 15.0 4.2 0.3 0.3 0.3 0.2 0.3 0.2 0.1 0.1 0.5 0.3 0.1 0.1
6.2 14.9 10.4 4.1 15.0 14.2 12.0 15.0 10.1 15.0 15.0 15.0 15.0 15.0 15.0 13.9 10.2 15.0 14.3 10.1 3.2 1.5 1.7 2.1 1.3 0.3 0.1 0.4 0.4 0.2 0.4 0.6 0.2 9.1 10.4 2.0 0.6 0.6 8.5 15.0 15.0 15.0 15.0 15.0 15.0 15.0 15.0 15.0 14.9 15.0 15.0 15.0 15.0 15.0
8.9 15.0 1.0 0.8 3.6 1.2 6.2 15.0 15.0 15.0 15.0 13.9 14.9 1.3 0.5 3.4 9.4 15.0 14.6 5.3 6.8 4.5 2.3 2.0 1.0 0.6 0.5 10.0 8.4 6.5 0.6 1.7 15.0 15.0 14.0 14.3 15.0 15.0 15.0 15.0 15.0 15.0 15.0 15.0 15.0 15.0 15.0 15.0 7.5 13.5 15.0 15.0 15.0 15.0
14.8 2.1 1.3 2.9 0.2 5.4 13.5 1.3 3.3 15.0 7.6 15.0 7.3 6.9 1.2 3.3 13.4 2.8 15.0 11.3 10.8 3.4 14.2 3.9 1.4 0.1 0.2 0.8 3.5 14.1 15.0 14.7 15.0 15.0 15.0 15.0 15.0 15.0 15.0 15.0 15.0 15.0 15.0 15.0 15.0 15.0 15.0 15.0 15.0 15.0 15.0 11.9 4.5 2.3
7.7 15.0 4.3 12.3 3.0 13.4 12.4 12.3 8.2 13.4 6.6 15.0 15.0 15.0 12.7 2.0 0.6 2.8 8.4 5.2 1.0 12.0 4.8 0.9 4.3 9.9 15.0 15.0 15.0 15.0 8.2 8.5 15.0 15.0 15.0 15.0 15.0 15.0 15.0 15.0 15.0 15.0 15.0 15.0 15.0 15.0 14.9 15.0 15.0 12.7 5.5 2.5 1.9 1.8